Regional Weather Roundup
Issued by NWS Green Bay, WI

Home | Current Version | Previous Version | Graphics & Text | Print | Product List | Glossary Off
Versions: 1 2 3 4 5 6 7 8 9 10 11 12 13 14 15 16 17 18 19 20 21 22 23 24 25 26 27 28 29 30 31 32 33 34 35 36 37 38 39 40 41 42 43 44 45 46 47 48 49 50

000
ASUS43 KGRB 161500
RWRGRB

NORTH-CENTRAL AND NORTHEAST WISCONSIN REGIONAL WEATHER ROUNDUP
NATIONAL WEATHER SERVICE GREEN BAY WI
900 AM CST MON JAN 16 2017

WIZ005-009-010>012-018-019-161600-
NORTH CENTRAL WISCONSIN

CITY           SKY/WX    TMP DP  RH WIND       PRES   REMARKS
IRONWOOD       CLOUDY    22  15  75 SW6       30.16S
MANITOWISH WTR NOT AVBL
ARBOR VITAE    NOT AVBL
EAGLE RIVER    NOT AVBL
LAND O LAKES   NOT AVBL
RHINELANDER    CLOUDY    14  11  87 CALM      30.18S FOG
PHILLIPS       CLOUDY   N/A N/A N/A CALM      30.17F
ANTIGO         NOT AVBL
TOMAHAWK       NOT AVBL
MERRILL        CLOUDY    -2  -7  80 CALM        N/A
$$

WIZ013-073-161600-
NORTHEAST WISCONSIN

CITY           SKY/WX    TMP DP  RH WIND       PRES   REMARKS
IRON MOUNTAIN  CLOUDY    14   8  77 N3        30.18R
MARINETTE      NOT AVBL
$$

WIZ017-030-035>037-045-161600-
CENTRAL WISCONSIN

CITY           SKY/WX    TMP DP  RH WIND       PRES   REMARKS
MEDFORD        NOT AVBL
WAUSAU         CLOUDY     6   2  83 CALM      30.20S FOG
MOSINEE        PTSUNNY   10  10 100 CALM      30.21S
MARSHFIELD     CLOUDY    11   7  84 NE5       30.18S FOG     WCI   3
WISC RAPIDS    CLOUDY    14  13  95 CALM      30.22F
STEVENS POINT  NOT AVBL
WAUPACA        NOT AVBL
SHAWANO        NOT AVBL
CLINTONVILLE   MOSUNNY   10   5  79 CALM      30.24S
WAUTOMA        CLOUDY    21  17  84 CALM      30.24F
$$

WIZ038-039-048-051-161600-
FOX VALLEY

CITY           SKY/WX    TMP DP  RH WIND       PRES   REMARKS
NWS GREEN BAY  CLOUDY    20  16  84 S3        30.25S
APPLETON       PTSUNNY   19  16  86 S3        30.23R
OSHKOSH        CLOUDY    24  19  81 CALM      30.24S HAZE
FOND DU LAC    CLOUDY    28  18  66 CALM      30.24F
$$

WIZ022-050-052-161600-
EAST CENTRAL WISCONSIN

CITY           SKY/WX    TMP DP  RH WIND       PRES   REMARKS
EPHRAIM        NOT AVBL
WASHINGTON ISL NOT AVBL
STURGEON BAY   CLOUDY    23  16  74 SW5       30.25S
MANITOWOC      NOT AVBL
SHEBOYGAN      CLOUDY    24  19  81 S3        30.26S
$$

LMZ563-521-522-541>543-161600-
LAKESHORE

STATION/POSITION TIME  TEMP    WIND        PRES    VSBY  WAVE
                       AIR SEA DIR/SP/G                  HT/PER
                 (UTC) (F)     (DEG/KT/KT) (MB)    (MI)  (FT/S)
SHEBOYGAN LKSHOR 1400   28     210/  1/  2 1025.8R
KEWAUNEE LKSHORE 1430   20     250/  2/  2 1024.3R
NORTHPORT PIER   1440   23        CALM     1024.4R
MENOMINEE LKSHOR 1430          210/  2/  4 1023.5R
$$




USA.gov is the U.S. government's official web portal to all federal, state and local government web resources and services.